Regional Weather Roundup
Issued by NWS

Home | Current Version | Previous Version | Graphics & Text | Print | Product List | Glossary On
Versions: 1 2 3 4 5 6 7 8 9 10 11 12 13 14 15 16 17 18 19 20 21 22 23 24 25 26 27 28 29 30 31 32 33 34 35 36 37 38 39 40 41 42 43 44 45 46 47 48 49 50
000
ASUS43 KOAX 221802
RWRNE

WEATHER ROUNDUP FOR NEBRASKA
NATIONAL WEATHER SERVICE OMAHA NE
100 PM CDT TUE AUG 22 2017

NOTES: SATELLITE DATA IS BEING USED TO AUGMENT CLOUD COVER ABOVE
       12000 FEET.
       "FAIR" INDICATES FEW OR NO CLOUDS BELOW 12,000 FEET WITH NO
       SIGNIFICANT WEATHER AND/OR OBSTRUCTIONS TO VISIBILITY.


NEZ001>004-019>022-054>056-221900-
NEBRASKA PANHANDLE

CITY           SKY/WX    TMP DP  RH WIND       PRES   REMARKS
SCOTTSBLUFF    PTSUNNY   80  47  31 SE17G23   30.27F
6HR MIN TEMP:  50; 6HR MAX TEMP:  80;

ALLIANCE       SUNNY     74  47  38 S14G21    30.29F
6HR MIN TEMP:  41; 6HR MAX TEMP:  74;

CHADRON        SUNNY     79  43  27 S14       30.23F
6HR MIN TEMP:  44; 6HR MAX TEMP:  80;

GORDON         FAIR      76  42  28 SW10G16   30.27F
6HR MIN TEMP:  42; 6HR MAX TEMP:  76;

KIMBALL        CLOUDY    71  50  47 SE18      30.33F
SIDNEY         SUNNY     76  46  34 S13       30.32F
6HR MIN TEMP:  46; 6HR MAX TEMP:  76;

$$

NEZ057>060-069>072-079>082-221900-
SOUTHWEST NEBRASKA

CITY           SKY/WX    TMP DP  RH WIND       PRES   REMARKS
NORTH PLATTE   SUNNY     75  53  46 SE8       30.28F
6HR MIN TEMP:  51; 6HR MAX TEMP:  75;

IMPERIAL       SUNNY     77  45  32 SE9       30.29F
6HR MIN TEMP:  53; 6HR MAX TEMP:  78;

LEXINGTON      SUNNY     73  51  45 SE6       30.27F
MCCOOK         SUNNY     76  51  41 E8        30.27F
6HR MIN TEMP:  59; 6HR MAX TEMP:  76;

OGALLALA       SUNNY     75  46  36 SE9       30.30F
$$

NEZ005>010-023>029-035>040-094-221900-
NORTH CENTRAL NEBRASKA

CITY           SKY/WX    TMP DP  RH WIND       PRES   REMARKS
VALENTINE      SUNNY     76  42  29 W7        30.26F
6HR MIN TEMP:  48; 6HR MAX TEMP:  76;

AINSWORTH      SUNNY     71  46  41 CALM      30.27F
BROKEN BOW     SUNNY     74  48  39 S6        30.27S
6HR MIN TEMP:  54; 6HR MAX TEMP:  75;

O`NEILL        SUNNY     71  47  42 N8        30.25S
ORD            SUNNY     75  44  33 N9        30.23F
6HR MIN TEMP:  54; 6HR MAX TEMP:  75;

THEDFORD       SUNNY     74  45  34 CALM      30.28F
$$

NEZ041-046>049-061>064-073>077-083>087-221900-
SOUTH CENTRAL NEBRASKA

CITY           SKY/WX    TMP DP  RH WIND       PRES   REMARKS
GRAND ISLAND   SUNNY     74  49  41 NE10      30.24F
6HR MIN TEMP:  58; 6HR MAX TEMP:  74;

AURORA         SUNNY     72  49  44 N10       30.24S
HASTINGS       SUNNY     74  51  44 NE8       30.25F
6HR MIN TEMP:  62; 6HR MAX TEMP:  74;

HEBRON         SUNNY     78  51  38 NE9       30.21S
HOLDREGE       SUNNY     71  52  50 N3        30.27F
KEARNEY        SUNNY     72  51  47 VRB5      30.27S
$$

NEZ011>018-030>034-042>045-221900-
NORTHEAST NEBRASKA

CITY           SKY/WX    TMP DP  RH WIND       PRES   REMARKS
NORFOLK        SUNNY     72  49  44 N12       30.21S
6HR MIN TEMP:  55; 6HR MAX TEMP:  73;

ALBION         SUNNY     72  52  49 N7        30.24F
BLAIR          SUNNY     73  51  45 N13       30.19S
COLUMBUS       SUNNY     72  52  49 N8        30.22F
FREMONT        SUNNY     73  47  39 N8        30.20S
TEKAMAH        SUNNY     74  48  39 N13       30.18F
6HR MIN TEMP:  59; 6HR MAX TEMP:  74;

WAYNE          SUNNY     71  45  39 N10G17    30.20F
$$

NEZ050>053-065>068-078-088>093-221900-
SOUTHEAST NEBRASKA

CITY           SKY/WX    TMP DP  RH WIND       PRES   REMARKS
LINCOLN        SUNNY     75  51  43 N10       30.20F
6HR MIN TEMP:  64; 6HR MAX TEMP:  75;

OMAHA EPPLEY   MOSUNNY   75  49  39 N14       30.17F
6HR MIN TEMP:  63; 6HR MAX TEMP:  76;

BEATRICE       SUNNY     75  56  52 N12G18    30.20S
FALLS CITY     MOSUNNY   76  61  59 N13G18    30.14F
6HR MIN TEMP:  63; 6HR MAX TEMP:  76;

NEBRASKA CITY  SUNNY     73  51  46 N8        30.18S
PLATTSMOUTH    SUNNY     73  48  41 N5        30.18S
$$

NEZ044-045-051>053-067-221900-
OMAHA AREA

CITY           SKY/WX    TMP DP  RH WIND       PRES   REMARKS
OMAHA EPPLEY   MOSUNNY   75  49  39 N14       30.17F
6HR MIN TEMP:  63; 6HR MAX TEMP:  76;

BLAIR          SUNNY     73  51  45 N13       30.19S
FREMONT        SUNNY     73  47  39 N8        30.20S
MILLARD        SUNNY     74  48  39 NE6       30.18S
OFFUTT AFB     SUNNY     75  47  37 N12       30.17F
PLATTSMOUTH    SUNNY     73  48  41 N5        30.18S
WAHOO          FAIR      73  53  49 N9        30.20F
$$



USA.gov is the U.S. government's official web portal to all federal, state and local government web resources and services.